Find Weili Kongjian 01-04

NORAD ID: 62579 Int'l Des: 2025-007 Owner: CENTI Country: CN Constellation: future-navigation operational
LEOCIRCULAR

当前视图

正在加载3D地球...

About Weili Kongjian 01-04

Weili Kongjian 01-04 (NORAD 62579) is a future-navigation constellation satellite launched Jan 13, 2025 by CENTI of CN. It operates in LEO, CIRCULAR orbit with a mass of 140.00 kg.

关于 Weili Kongjian 01-04

正在加载描述...

即将过境

Passes for default location (London). Set your location on the main map for personalized predictions.

高度历史

Loading altitude history...

两行轨道根数

1 62579U 25007E 26195.13362209 -.00000109 00000-0 30035-4 0 9998
2 62579 54.9868 197.2570 0012084 140.4235 219.7605 13.80615583 78450
Epoch: Jul 14, 2026 • Age: 12 hours

当前状态

高度 967.0 km
远地点 / 近地点 N/A
速度 7.37 km/s
星下点 13.80°N, 41.04°E
发射日期 Jan 13, 2025
运行时间 1.4 years
类型 other

技术详情

分类 Payload
质量 140.00 kg
干质量 140.00 kg
总质量 140.00 kg
长度 1.00 m
直径 0.50 m
跨度 2.00 m
形状 Box + 2 pan
制造商 DFHS
平台类型 WK01
阶段状态 In Orbit
所有者/国家 CENTI/CN

Most Searched